sat.trackr.live / text

‹ back to catalog

2023-069A

NORAD 56731 · 2023-069A

PAYLOAD ACTIVE UNKNOWN

§ Identity

Operator
Country
PRC
Launch date
2023-05-21
Launch site
JSC
Launch vehicle
Mass (kg)
RCS (m²)

External: N2YO · Heavens-Above · Gunter

§ Orbital elements

Epoch: 2026-05-24T22:32:33.124992Z

Period
93.45 min
Inclination
40.9956°
Eccentricity
0.0006002
Mean motion
15.40951162 rev/d
Perigee alt
439.2 km
Apogee alt
447.4 km
Semi-major
6,821.4 km
B*
2.4570e-4
RAAN
316.0760°
Arg perigee
124.6189°
Mean anomaly
235.5201°
Rev number
16,946

§ Raw data

2023-069A1 56731U 23069A   26144.93927228  .00010128  00000+0  24570-3 0  99932 56731  40.9956 316.0760 0006002 124.6189 235.5201 15.40951162169467

JSON: /api/v1/satellites/56731 · /tle

For live sub-satellite position, see the globe view (requires WebGL).

§ Visibility from observer

Set your observer location to see the next 7 days of passes ≥ 10°. The values pass through the URL so the page stays shareable.

No JS? Fill the form by hand. The geolocation button needs JavaScript.

§ Radio — SatNOGS DB

ModeDescriptionDownlinkUplink
FM S-band telemetry 2.207 GHz

1 transmitter · refreshed weekly from db.satnogs.org